[[{"header":{"parameterUnit":"m.s-1","parameterCategory":1,"la1":30.2991,"la2":30.254,"lo1":-89.0895,"lo2":-89.0444,"dy":0.0017,"dx":0.0017,"nx":28,"ny":28,"refTime":"2024-10-21T09:00:00:Z","depth":0,"parameterNumber":2,"parameterNumberName":"U-component_of_WINDS"},"data":[0,0,0,0,0,0,0,0,0,0,0,0,0,0,0,0,0,0,0,0,0,0,0,0,0,0,0,0,0,0,0,0,0,0,0,0,0,0,0,0,0,0,0,0,0,0,0,0,0,0,0,0,0,0,0,0,0,0,-2.616,-2.616,0,-2.6215,-2.6215,-2.6216,-2.6111,-2.6108,-2.6104,-2.6101,-2.6158,-2.6163,-2.6167,0,0,0,0,0,0,0,0,0,0,0,0,0,-2.5965,-2.5969,-2.616,-2.616,-2.6161,-2.6214,-2.6215,-2.6216,-2.6112,-2.6108,-2.6103,-2.6099,-2.6157,-2.6162,-2.6168,0,0,0,0,0,0,0,0,0,0,0,0,0,-2.6038,-2.597,-2.616,-2.6115,-2.6112,-2.6214,-2.6215,-2.6216,-2.6113,-2.6107,-2.6102,-2.6097,-2.6155,-2.6162,-2.6169,-2.6317,0,0,-2.619,-2.6194,0,0,0,0,0,0,0,0,-2.6034,-2.6045,-2.6121,-2.6119,-2.6115,-2.6151,-2.6167,-2.625,-2.6114,-2.6113,-2.6101,-2.6095,-2.616,-2.6166,-2.6188,-2.6319,-2.6322,-2.6191,-2.6195,-2.6198,-2.62,0,0,0,0,0,0,0,-2.6029,-2.6042,-2.6181,-2.6123,-2.6119,-2.6093,-2.6098,-2.6183,-2.6165,-2.6112,-2.6105,-2.6113,-2.6157,-2.6181,-2.6189,-2.6323,-2.6191,-2.6197,-2.6202,-2.6204,-2.6579,-2.6584,0,0,0,0,0,0,-2.6029,-2.6039,-2.618,-2.6183,-2.6061,-2.6101,-2.6106,-2.6145,-2.6163,-2.6161,-2.6117,-2.6108,-2.6172,-2.618,-2.619,-2.6366,-2.6198,-2.6205,-2.6209,-2.6573,-2.658,-2.6586,0,0,0,0,0,0,-2.6025,-2.6043,-2.6177,-2.6109,-2.6124,-2.611,-2.6154,-2.6148,-2.6172,-2.6167,-2.6163,-2.6145,-2.6168,-2.618,-2.6286,-2.6366,-2.6208,-2.6215,-2.6566,-2.6575,-2.6583,-2.6718,0,0,0,0,0,0,-2.602,-2.6042,-2.6098,-2.6111,-2.6128,-2.6273,-2.6159,-2.6153,-2.6185,-2.6173,-2.6192,-2.6191,-2.6165,-2.6276,-2.6293,-2.6373,-2.622,-2.6559,-2.657,-2.658,-2.6706,-2.673,-2.675,0,0,0,0,0,-2.6014,-2.6134,-2.6102,-2.6119,-2.6198,-2.6278,-2.6287,-2.6255,-2.6192,-2.6248,-2.6245,-2.619,-2.6354,-2.6288,-2.6306,-2.639,-2.6554,-2.6567,-2.6579,-2.6696,-2.6725,-2.6749,0,0,0,0,0,0,-2.6132,-2.6135,-2.6099,-2.6227,-2.6253,-2.626,-2.633,-2.6287,-2.6331,-2.6318,-2.6276,-2.6281,-2.6396,-2.6403,-2.6329,-2.6534,-2.6443,-2.646,-2.6526,-2.6553,-2.6575,-2.6572,-2.6226,0,0,0,0,0,-2.6173,-2.6237,-2.6236,-2.6349,-2.6364,-2.6345,-2.6378,-2.6351,-2.6376,-2.6387,-2.6391,-2.6418,-2.6475,-2.6514,-2.6566,-2.6705,-2.6709,-2.6772,-2.6794,-2.6812,-2.6828,-2.6902,-2.6931,-2.6628,-2.6628,-2.6627,0,0,-2.6258,-2.6267,-2.6311,-2.6373,-2.639,-2.6458,-2.6355,-2.6431,-2.6481,-2.6398,-2.6499,-2.6503,-2.653,-2.6653,-2.6708,-2.6662,-2.6912,-2.6828,-2.6842,-2.6849,-2.6918,-2.6947,-2.6973,-2.6636,-2.6635,-2.6633,0,0,-2.6448,-2.6462,-2.6558,-2.6577,-2.6603,-2.659,-2.6613,-2.6626,-2.6626,-2.6726,-2.6665,-2.6724,-2.6823,-2.6845,-2.687,-2.7068,-2.702,-2.7086,-2.7202,-2.7275,-2.7299,-2.732,-2.7392,-2.7418,-2.7101,-2.7102,-2.7102,0,-2.6551,-2.6651,-2.6613,-2.6693,-2.6723,-2.665,-2.6747,-2.6767,-2.681,-2.6832,-2.678,-2.6904,-2.6917,-2.7045,-2.7093,-2.7114,-2.714,-2.7085,-2.7298,-2.7319,-2.7338,-2.7406,-2.7433,-2.711,-2.7109,-2.7108,-2.7107,0,-2.6777,-2.6847,-2.6921,-2.6965,-2.7002,-2.7091,-2.7066,-2.7108,-2.7077,-2.7069,-2.7172,-2.7185,-2.7239,-2.7267,-2.7237,-2.7391,-2.7362,-2.7305,-2.7214,-2.7376,-2.7439,-2.7465,-2.7121,-2.7118,-2.7116,-2.7114,0,0,-2.7046,-2.7065,-2.7094,-2.7112,-2.7136,-2.7189,-2.7274,-2.7327,-2.7365,-2.7396,-2.7467,-2.7553,-2.75,-2.7527,-2.7499,-2.7564,-2.7721,-2.7499,-2.7498,-2.7541,-2.7892,-2.7937,-2.7968,-2.7688,-2.7693,-2.7697,-2.7891,0,-2.7236,-2.7383,-2.735,-2.7495,-2.756,-2.7491,-2.7565,-2.7588,-2.7582,-2.7636,-2.7629,-2.7692,-2.7617,-2.7633,-2.7693,-2.769,-2.7792,-2.7675,-2.7755,-2.7758,-2.7753,-2.8,-2.8048,-2.823,-2.7915,-2.7919,-2.7922,0,-2.7478,-2.7519,-2.767,-2.7683,-2.7709,-2.7777,-2.7822,-2.7874,-2.7898,-2.789,-2.7921,-2.788,-2.7964,-2.787,-2.7987,-2.7908,-2.7938,-2.7941,-2.7948,-2.7956,-2.7852,-2.8017,-2.8287,-2.8315,-2.7961,-2.7958,-2.7955,0,-2.7661,-2.7753,-2.7856,-2.7874,-2.7891,-2.794,-2.795,-2.7969,-2.8002,-2.8042,-2.8063,-2.8112,-2.814,-2.8179,-2.8153,-2.8086,-2.8274,-2.8177,-2.827,-2.8271,-2.8314,-2.8312,-2.8595,-2.8331,-2.8331,-2.833,-2.8329,0,-2.7878,-2.7974,-2.7938,-2.8002,-2.8107,-2.8068,-2.8173,-2.8174,-2.8192,-2.8254,-2.8197,-2.8257,-2.8218,-2.8274,-2.8254,-2.8354,-2.8366,-2.8362,-2.8356,-2.8369,-2.837,-2.839,-2.8377,-2.8337,-2.8336,-2.8334,-2.8333,0,-2.8101,-2.8081,-2.8189,-2.8196,-2.82,-2.8278,-2.8284,-2.8343,-2.8332,-2.8412,-2.8429,-2.8413,-2.8477,-2.8454,-2.8522,-2.8508,-2.8636,-2.8612,-2.8629,-2.8623,-2.8718,-2.871,-2.9025,-2.9065,-2.8774,-2.8776,-2.8779,0,-2.8242,-2.8315,-2.833,-2.8367,-2.8381,-2.8443,-2.8476,-2.844,-2.8478,-2.8511,-2.8566,-2.8625,-2.867,-2.8775,-2.877,-2.8822,-2.88,-2.8907,-2.8807,-2.8818,-2.8804,-2.8801,-2.8808,-2.8927,-2.8931,-2.8934,-2.8936,0,-2.8496,-2.8482,-2.8533,-2.8582,-2.8624,-2.866,-2.8691,-2.8725,-2.869,-2.8736,-2.88,-2.8835,-2.8905,-2.8964,-2.901,-2.902,-2.8973,-2.8967,-2.8991,-2.9006,-2.9013,-2.9012,-2.8685,-2.896,-2.8958,-2.8956,-2.8955,-2.8954,-2.8683,-2.8744,-2.8765,-2.8824,-2.8843,-2.8873,-2.8929,-2.8926,-2.8979,-2.9032,-2.9007,-2.9083,-2.9104,-2.9161,-2.9177,-2.9235,-2.9194,-2.9229,-2.9238,-2.9248,-2.9261,-2.9002,-2.9243,-2.9243,-2.9242,-2.9241,-2.9241,0,-2.8935,-2.8944,-2.8999,-2.9044,-2.9091,-2.9041,-2.9072,-2.9115,-2.9182,-2.9206,-2.9251,-2.9325,-2.9382,-2.9381,-2.9434,-2.9481,-2.9461,-2.9496,-2.9493,-2.9496,-2.9294,-2.9269,-2.9511,-2.9511,-2.9511,-2.9511,-2.9511,-2.9511,-2.9071,-2.9172,-2.9161,-2.9271,-2.9279,-2.9353,-2.9375,-2.9403,-2.9422,-2.9507,-2.9554,-2.9553,-2.9567,-2.962,-2.967,-2.9668,-2.9691,-2.9735,-2.9725,-2.9537,-2.9511,-2.9485,-2.9461,-2.974,-2.974,-2.9922,-2.9924,-2.9925]},{"header":{"parameterUnit":"m.s-1","parameterCategory":1,"la1":30.2991,"la2":30.254,"lo1":-89.0895,"lo2":-89.0444,"dy":0.0017,"dx":0.0017,"nx":28,"ny":28,"refTime":"2024-10-21T09:00:00:Z","depth":0,"parameterNumber":3,"parameterNumberName":"V-component_of_WINDS"},"data":[0,0,0,0,0,0,0,0,0,0,0,0,0,0,0,0,0,0,0,0,0,0,0,0,0,0,0,0,0,0,0,0,0,0,0,0,0,0,0,0,0,0,0,0,0,0,0,0,0,0,0,0,0,0,0,0,0,0,-4.5663,-4.5664,0,-4.5717,-4.5718,-4.5718,-4.5661,-4.5659,-4.5657,-4.5655,-4.5705,-4.5708,-4.5712,0,0,0,0,0,0,0,0,0,0,0,0,0,-4.5506,-4.5509,-4.5663,-4.5664,-4.5665,-4.5717,-4.5718,-4.5718,-4.5661,-4.5659,-4.5656,-4.5654,-4.5704,-4.5708,-4.5712,0,0,0,0,0,0,0,0,0,0,0,0,0,-4.5568,-4.551,-4.5663,-4.5643,-4.5641,-4.5717,-4.5718,-4.5719,-4.5662,-4.5659,-4.5655,-4.5652,-4.5703,-4.5708,-4.5713,-4.5809,0,0,-4.5728,-4.573,0,0,0,0,0,0,0,0,-4.5565,-4.5574,-4.5645,-4.5644,-4.5643,-4.5679,-4.568,-4.5749,-4.5663,-4.5654,-4.5655,-4.5651,-4.5699,-4.5704,-4.5721,-4.5812,-4.5814,-4.5729,-4.5732,-4.5734,-4.5735,0,0,0,0,0,0,0,-4.556,-4.5571,-4.5684,-4.5646,-4.5645,-4.5629,-4.5634,-4.5693,-4.5694,-4.5655,-4.5651,-4.5658,-4.5698,-4.5716,-4.5722,-4.5815,-4.5728,-4.5733,-4.5736,-4.5738,-4.5985,-4.5989,0,0,0,0,0,0,-4.5559,-4.5568,-4.5683,-4.5686,-4.5595,-4.5634,-4.564,-4.5671,-4.5693,-4.5694,-4.5661,-4.5655,-4.5709,-4.5716,-4.5723,-4.5837,-4.5734,-4.5738,-4.5741,-4.5982,-4.5986,-4.599,0,0,0,0,0,0,-4.5556,-4.557,-4.568,-4.5626,-4.5639,-4.5641,-4.5675,-4.5673,-4.5692,-4.5698,-4.5697,-4.568,-4.5707,-4.5716,-4.5788,-4.5838,-4.5741,-4.5745,-4.5978,-4.5983,-4.5988,-4.6066,0,0,0,0,0,0,-4.5552,-4.5569,-4.5607,-4.5627,-4.5642,-4.5746,-4.5678,-4.5677,-4.5702,-4.5695,-4.5716,-4.5716,-4.5705,-4.5781,-4.5793,-4.5843,-4.5749,-4.5973,-4.598,-4.5986,-4.6059,-4.6073,-4.6085,0,0,0,0,0,-4.5546,-4.5626,-4.561,-4.5624,-4.569,-4.5749,-4.5758,-4.5744,-4.5706,-4.5743,-4.5747,-4.5716,-4.5831,-4.5789,-4.5802,-4.5854,-4.597,-4.5978,-4.5986,-4.6053,-4.607,-4.6085,0,0,0,0,0,0,-4.5611,-4.5629,-4.561,-4.57,-4.5724,-4.574,-4.5787,-4.5764,-4.5798,-4.579,-4.5771,-4.5776,-4.5852,-4.586,-4.5814,-4.5948,-4.5894,-4.5905,-4.594,-4.5957,-4.597,-4.5966,-4.5754,0,0,0,0,0,-4.5636,-4.5684,-4.5696,-4.5774,-4.5787,-4.5785,-4.581,-4.5798,-4.5822,-4.5831,-4.584,-4.5862,-4.5903,-4.593,-4.5969,-4.606,-4.6062,-4.6102,-4.6115,-4.6126,-4.6136,-4.6183,-4.62,-4.6016,-4.6016,-4.6016,0,0,-4.5687,-4.5703,-4.5734,-4.5787,-4.5804,-4.5853,-4.5794,-4.5848,-4.5883,-4.5839,-4.5907,-4.5915,-4.5938,-4.602,-4.6056,-4.6029,-4.6187,-4.6136,-4.6145,-4.6148,-4.6193,-4.621,-4.6226,-4.6021,-4.602,-4.602,0,0,-4.5805,-4.5823,-4.5889,-4.5908,-4.5935,-4.5933,-4.5948,-4.5968,-4.5971,-4.6041,-4.6008,-4.6048,-4.612,-4.6138,-4.6156,-4.628,-4.6252,-4.6293,-4.6362,-4.6408,-4.6423,-4.6436,-4.6478,-4.6494,-4.6303,-4.6303,-4.6303,0,-4.5865,-4.5939,-4.5925,-4.5982,-4.6005,-4.5969,-4.6034,-4.6052,-4.609,-4.6106,-4.6075,-4.6163,-4.6177,-4.6262,-4.6292,-4.6309,-4.6324,-4.629,-4.6422,-4.6435,-4.6446,-4.6487,-4.6503,-4.6308,-4.6307,-4.6307,-4.6306,0,-4.6011,-4.6062,-4.6112,-4.6151,-4.6179,-4.624,-4.6234,-4.6264,-4.625,-4.625,-4.632,-4.6334,-4.6374,-4.6394,-4.6379,-4.6476,-4.6458,-4.6426,-4.637,-4.6469,-4.6507,-4.6522,-4.6314,-4.6313,-4.6311,-4.631,0,0,-4.6171,-4.6201,-4.622,-4.6236,-4.6263,-4.6302,-4.636,-4.64,-4.6426,-4.6453,-4.65,-4.6561,-4.653,-4.6551,-4.6539,-4.6579,-4.6675,-4.6541,-4.6541,-4.6564,-4.678,-4.6804,-4.6823,-4.6657,-4.666,-4.6662,-4.6778,0,-4.6289,-4.6392,-4.6381,-4.6478,-4.6524,-4.6489,-4.6539,-4.656,-4.6562,-4.66,-4.6601,-4.6644,-4.6602,-4.6614,-4.6653,-4.6655,-4.6718,-4.6647,-4.6698,-4.6701,-4.6693,-4.6842,-4.6868,-4.6977,-4.6793,-4.6795,-4.6797,0,-4.6441,-4.6474,-4.6577,-4.6595,-4.6614,-4.666,-4.6695,-4.6732,-4.6754,-4.6753,-4.6776,-4.6756,-4.6812,-4.6756,-4.6832,-4.6784,-4.6805,-4.6809,-4.6813,-4.6816,-4.6754,-4.6849,-4.7011,-4.7027,-4.682,-4.6819,-4.6817,0,-4.6546,-4.6617,-4.6686,-4.6702,-4.6726,-4.6758,-4.6769,-4.6788,-4.6813,-4.6843,-4.6858,-4.6894,-4.6914,-4.6942,-4.6931,-4.6892,-4.7008,-4.6952,-4.7007,-4.7007,-4.7032,-4.7031,-4.7199,-4.7048,-4.7047,-4.7047,-4.7047,0,-4.6678,-4.6742,-4.6734,-4.6777,-4.6846,-4.6831,-4.69,-4.6906,-4.6923,-4.6965,-4.6937,-4.6977,-4.6961,-4.6999,-4.699,-4.7054,-4.7063,-4.7062,-4.7059,-4.7064,-4.7064,-4.7076,-4.7068,-4.7051,-4.705,-4.705,-4.7049,0,-4.6808,-4.6805,-4.6878,-4.6895,-4.6901,-4.6951,-4.6964,-4.7003,-4.7003,-4.7056,-4.7068,-4.7066,-4.711,-4.7102,-4.715,-4.7144,-4.7223,-4.7211,-4.7216,-4.7212,-4.7267,-4.7261,-4.7448,-4.7471,-4.7306,-4.7308,-4.7309,0,-4.6892,-4.694,-4.6962,-4.6989,-4.7002,-4.7046,-4.7071,-4.7058,-4.7085,-4.7113,-4.7148,-4.7189,-4.7221,-4.7292,-4.7294,-4.733,-4.7317,-4.738,-4.7323,-4.7326,-4.7317,-4.7314,-4.7317,-4.7391,-4.7393,-4.7395,-4.7396,0,-4.7041,-4.7037,-4.7075,-4.7113,-4.7144,-4.7172,-4.7198,-4.7221,-4.721,-4.7241,-4.7286,-4.7311,-4.7359,-4.74,-4.7433,-4.7442,-4.7417,-4.7415,-4.7429,-4.7434,-4.7434,-4.7433,-4.7246,-4.741,-4.7409,-4.7408,-4.7407,-4.7406,-4.7149,-4.719,-4.7211,-4.7254,-4.7272,-4.7297,-4.7334,-4.7338,-4.7376,-4.7415,-4.7405,-4.7455,-4.7474,-4.7516,-4.7529,-4.7567,-4.7543,-4.7564,-4.7569,-4.7574,-4.758,-4.743,-4.7573,-4.7572,-4.7572,-4.7572,-4.7571,0,-4.7296,-4.7308,-4.7348,-4.7385,-4.7418,-4.7393,-4.7419,-4.7448,-4.7493,-4.7514,-4.7546,-4.7596,-4.7635,-4.764,-4.7677,-4.7706,-4.7695,-4.7715,-4.7712,-4.7715,-4.76,-4.7584,-4.7723,-4.7723,-4.7723,-4.7723,-4.7723,-4.7723,-4.7376,-4.7443,-4.7441,-4.7516,-4.7527,-4.7577,-4.7594,-4.7615,-4.7632,-4.769,-4.7722,-4.7726,-4.774,-4.7777,-4.781,-4.7811,-4.7825,-4.7849,-4.7845,-4.7738,-4.7723,-4.7708,-4.7693,-4.7853,-4.7853,-4.7956,-4.7957,-4.7958]}]]